Location: Newark
(48.8604°N, 2.3376°E)
Time: 22:16:40
(UTC+00:00)

XW-2C - Pass Details

Date: 12 December 2021
Orbit: 503 x 523 km, 97.5° (Epoch: 19 January)

Event Time Altitude Azimuth Distance (km) Brightness Sun altitude
Rises 04:48:59 0° 29° (NNE) 2,672 ? -26.1°
Reaches altitude 10° 04:51:52 10° 53° (NE) 1,775 ? -25.6°
Maximum altitude 04:54:09 15° 90° (E) 1,469 ? -25.3°
Drops below altitude 10° 04:56:25 10° 127° (SE) 1,761 ? -24.9°
Sets 04:59:15 0° 151° (SSE) 2,639 ? -24.4°
